RH
95 96 96 96 96 95 94 94 94 93 93 92 91 90 90 89 87 86 85 85 85 82 79 77 70 80 53 42 28 26 51 42 22 17 19 20 22 26 27 26 22 23 22 21 20 20 21
94 94 92 92 92 94 97 96 96 95 94 94 93 92 92 91 91 90 87 86 86 86 83 82 71 79 38 57 23 20 24 20 17 18 19 19 24 26 27 29 28 25 25 24 21 20 20
94 94 93 92 92 91 94 98 98 98 98 97 94 94 94 93 93 91 89 87 87 86 84 85 72 61 43 49 28 23 24 21 18 20 22 22 23 24 30 28 28 26 28 25 18 22 22
91 91 91 93 93 92 89 93 98 99 98 97 96 96 96 95 94 93 91 89 88 87 88 86 70 57 48 30 34 30 27 22 18 20 21 22 22 25 30 29 26 32 31 30 15 19 18
89 89 89 91 88 87 87 87 93 98 99 98 98 97 97 97 96 94 92 90 90 90 82 78 72 59 49 38 27 19 19 19 18 21 22 16 22 30 28 33 25 32 35 37 29 22 20
89 89 87 84 84 83 83 84 85 91 98 99 99 98 98 98 96 94 90 89 84 82 65 56 53 55 39 29 22 16 18 18 21 24 24 27 35 36 37 33 38 33 39 45 36 26 24
78 85 86 82 83 81 79 81 82 83 87 98 98 98 98 98 96 90 78 49 57 73 70 54 51 41 33 27 18 18 16 19 24 24 32 38 36 39 34 33 31 36 41 42 36 29 30
82 83 82 81 82 80 77 81 82 78 78 86 97 98 98 97 94 81 64 55 44 52 71 50 47 47 41 39 46 27 15 19 27 26 30 36 39 29 32 34 38 41 46 48 38 30 29
80 83 80 76 76 75 74 79 82 77 76 83 91 98 98 96 88 79 66 61 39 46 71 55 46 46 45 43 53 50 18 24 28 32 35 36 31 27 32 36 40 43 47 46 40 36 41
78 82 81 76 72 74 76 80 83 77 74 79 90 96 98 90 88 82 86 57 48 56 74 47 56 46 42 45 45 30 22 21 32 29 32 34 29 34 39 38 37 48 36 37 37 49 58
79 81 82 80 78 79 82 82 84 79 76 79 92 98 95 83 86 80 60 57 61 49 48 27 58 28 33 41 28 28 26 25 32 33 33 35 34 33 34 32 35 39 35 38 43 52 66
79 80 79 80 78 77 80 84 82 82 77 87 96 97 94 77 72 67 62 70 69 74 69 45 31 29 32 28 28 29 31 29 32 36 42 35 36 38 38 35 36 35 40 48 64 61 79
78 79 78 80 79 77 77 82 81 81 82 94 98 95 89 70 82 71 74 81 90 85 43 49 37 31 37 36 33 33 39 41 38 45 50 44 42 38 37 40 39 42 52 74 76 91 69
80 80 79 77 78 77 78 77 81 81 91 95 98 93 92 92 88 81 86 84 97 55 66 49 54 37 42 40 38 40 43 42 43 41 53 55 53 45 39 40 42 46 49 69 79 90 73
80 80 81 77 79 77 77 78 82 82 92 96 90 97 97 94 91 87 88 96 82 65 56 56 56 61 62 52 44 45 44 45 39 42 52 64 61 42 39 41 40 42 58 46 71 73 93
79 78 79 80 80 79 78 80 83 83 94 89 96 94 95 93 89 87 95 82 76 65 55 55 60 68 79 60 52 46 46 42 43 45 45 53 75 49 45 43 37 45 42 68 93 96 94
79 80 81 80 80 82 79 80 84 85 92 83 93 96 89 91 88 95 95 80 73 57 51 62 69 74 70 74 64 63 52 44 52 53 49 60 74 60 55 52 50 54 62 75 79 85 97
80 80 81 80 80 81 81 81 82 89 89 83 96 97 94 91 99 100 92 78 69 60 54 54 62 71 73 73 71 77 63 51 51 52 57 60 76 84 59 47 61 57 69 83 96 94 93
81 80 79 79 80 81 81 80 83 86 82 93 99 100 96 95 95 95 88 81 71 62 60 59 62 63 74 79 76 75 68 54 57 57 64 63 74 87 62 64 62 77 84 88 92 97 94
81 82 80 80 80 79 81 79 81 82 84 90 98 99 100 100 89 88 89 84 80 67 65 60 63 65 75 78 77 76 74 66 56 54 67 67 76 72 83 75 83 90 74 67 79 98 90
82 82 80 80 79 79 80 80 78 83 86 90 95 94 90 99 97 87 80 80 83 73 68 65 67 63 69 81 82 80 79 69 63 57 72 72 92 90 84 81 82 79 80 75 74 73 91
87 82 82 80 80 80 80 77 79 79 85 97 99 94 88 90 76 81 81 86 82 72 66 67 76 69 69 68 59 79 77 77 70 69 64 69 87 93 93 72 76 78 74 70 64 67 76
81 86 81 82 81 80 79 78 79 80 84 99 99 92 84 86 88 90 80 80 79 72 70 63 68 72 75 70 69 63 64 65 65 68 74 74 82 94 80 67 76 79 77 72 72 74 73
80 78 78 82 81 80 80 78 79 80 76 96 98 91 88 94 88 74 73 68 75 76 68 75 71 78 70 63 63 69 69 70 72 73 66 80 82 82 88 86 94 65 66 70 76 73 76
82 81 78 78 79 79 81 79 79 80 79 92 98 97 92 96 82 80 78 76 72 73 78 76 70 68 69 70 86 85 88 78 70 64 66 70 82 92 96 86 70 60 57 85 86 77 76
79 79 78 79 80 81 81 81 83 79 80 92 89 97 95 92 88 66 79 77 88 93 89 82 72 71 73 90 100 94 92 82 74 62 63 70 74 84 97 96 92 70 78 73 73 86 81
77 75 75 76 78 79 80 80 81 76 74 93 96 91 98 100 84 73 88 84 78 87 90 86 86 89 81 98 97 93 94 71 79 66 64 83 94 95 91 93 84 68 73 73 91 76 84
78 76 76 76 75 75 76 80 82 81 79 89 89 90 95 100 95 75 67 82 88 89 92 82 90 93 95 95 99 97 99 81 78 63 65 72 90 96 91 95 89 81 78 83 81 88 86
78 78 76 75 74 75 76 77 79 81 81 82 96 85 91 99 99 93 92 86 66 67 84 90 83 91 92 91 98 95 99 95 75 90 59 81 77 84 80 82 88 89 95 90 82 81 86
Wind_Speed
11 10 8 9 11 12 12 13 12 11 10 10 10 9 9 9 7 8 8 9 11 12 15 15 17 20 9 5 4 2 3 4 3 3 6 5 8 4 4 3 5 1 4 7 7 10 7
7 6 6 5 4 6 11 14 12 11 11 11 11 11 10 9 8 9 9 11 10 11 15 15 16 15 3 4 2 4 2 3 3 4 4 5 3 1 3 2 1 3 4 9 9 5 5
7 7 7 6 4 4 6 9 13 12 13 14 13 11 11 9 10 9 8 10 9 10 14 14 13 3 2 10 2 6 3 0 1 1 2 2 3 5 1 4 0 4 7 8 3 5 2
10 10 10 9 7 8 5 4 9 12 13 15 14 13 12 11 10 9 9 9 9 12 13 11 9 3 7 2 3 5 1 3 1 2 1 2 3 3 2 2 6 3 4 5 5 7 4
13 12 10 10 7 9 7 2 1 6 14 14 13 11 11 9 9 9 8 8 10 12 10 8 1 2 9 6 2 3 4 3 2 2 4 3 4 3 5 3 4 6 0 2 10 4 3
13 13 11 9 9 7 5 6 0 1 8 10 11 11 10 8 9 4 6 7 7 7 3 4 1 3 5 3 2 2 2 2 2 3 4 6 5 3 3 4 2 3 3 2 5 7 6
12 15 13 10 8 7 7 5 4 2 2 6 9 9 8 8 5 2 3 3 4 2 3 8 3 4 4 3 5 1 3 4 2 4 2 2 2 5 6 5 3 3 3 6 6 11 2
11 12 12 9 7 7 6 4 4 5 3 2 7 8 8 6 7 4 2 2 1 1 8 10 13 7 3 4 5 3 4 5 3 3 4 4 6 6 2 5 6 5 4 7 6 8 6
8 11 12 10 8 6 4 5 5 5 4 3 4 7 7 10 8 2 3 3 2 2 3 8 6 5 5 7 7 7 8 3 3 3 4 6 5 5 2 5 3 5 6 5 9 3 4
9 9 10 11 9 7 6 6 5 6 5 4 5 8 12 13 4 4 2 2 4 2 3 7 4 6 5 5 2 2 6 5 2 6 5 5 4 1 2 5 4 4 6 8 5 2 4
14 15 13 12 10 10 8 5 6 7 4 5 6 11 15 1 6 3 1 2 4 4 4 1 3 2 3 5 6 4 1 3 5 4 4 6 3 4 6 8 4 8 3 4 4 4 0
16 15 14 13 11 10 9 8 6 7 4 4 6 14 14 3 2 1 2 6 5 7 9 1 2 3 4 1 2 2 3 5 1 3 0 7 2 3 7 5 6 4 4 3 4 3 2
19 17 15 14 13 10 10 9 6 8 3 3 9 14 5 2 3 1 2 4 5 5 4 2 3 3 2 2 2 2 2 1 3 2 3 4 3 3 3 4 4 3 5 4 4 2 6
18 17 18 15 14 12 11 9 7 8 6 8 11 7 3 2 1 2 3 4 5 3 4 3 2 3 3 2 1 2 2 2 2 4 1 2 7 2 1 2 3 2 5 4 5 2 5
20 17 16 16 15 14 13 10 8 10 10 12 9 2 2 3 3 1 3 5 6 5 3 1 3 3 1 2 3 2 3 4 3 6 6 4 6 4 2 1 1 3 1 5 4 1 2
21 20 18 16 15 14 13 12 10 10 14 10 3 2 2 4 2 3 3 9 4 3 4 3 4 2 4 1 3 2 1 1 1 1 1 1 3 3 4 2 4 3 3 4 3 4 5
20 20 20 19 17 16 14 12 12 10 16 9 4 4 1 3 2 3 5 4 4 3 2 2 2 3 2 3 2 1 3 3 1 2 5 3 5 3 2 1 5 6 2 2 3 3 4
21 19 19 18 18 17 16 15 14 14 18 5 4 2 3 3 3 2 5 6 1 2 2 2 2 1 4 4 3 2 5 3 0 2 2 2 4 4 8 6 5 5 2 3 3 1 3
20 21 20 19 19 18 18 17 15 17 16 4 3 1 2 1 8 5 1 1 1 2 1 1 3 3 3 6 1 5 3 5 3 2 1 1 2 4 5 3 4 4 2 4 2 2 4
22 22 20 20 18 18 19 17 16 17 15 5 3 4 1 1 2 6 5 3 5 2 3 1 1 1 3 2 2 2 3 3 2 4 3 1 4 6 7 7 4 4 3 4 4 4 5
23 22 21 19 18 18 19 18 18 18 18 4 2 4 3 7 9 4 6 7 7 6 3 4 3 6 5 3 2 5 4 3 2 4 3 4 5 4 6 7 7 13 8 9 14 14 13
18 13 16 23 19 17 19 20 18 18 18 2 5 4 1 1 11 11 8 6 6 5 5 4 4 4 5 7 9 2 1 2 5 1 4 2 4 3 4 8 10 16 13 15 22 18 15
28 28 26 21 21 21 18 16 16 18 14 3 2 1 4 4 6 10 12 5 7 7 5 5 3 3 3 7 6 8 7 6 6 4 5 2 3 2 12 5 8 11 10 15 7 6 6
25 23 21 19 18 18 21 19 17 17 17 2 1 4 4 2 6 11 6 13 8 8 6 0 4 5 4 6 4 2 4 6 7 8 7 7 5 3 7 3 8 9 5 6 7 8 7
20 21 21 19 17 16 19 19 15 15 18 3 3 2 2 3 6 4 6 7 9 7 6 5 5 5 1 5 4 4 2 3 6 9 11 7 5 2 4 6 11 12 9 6 4 8 6
20 20 20 19 17 16 16 18 21 20 15 3 2 3 1 4 8 8 9 6 5 4 2 6 5 5 4 3 3 4 4 3 3 4 3 6 4 4 3 7 7 6 3 1 3 7 2
20 20 21 20 20 18 17 18 19 22 20 5 2 6 1 2 3 8 6 9 6 3 2 3 2 3 4 3 4 4 4 3 3 4 4 3 2 9 10 10 7 6 4 2 3 7 1
22 21 21 20 20 20 19 18 18 19 21 10 4 7 7 2 4 1 5 5 4 4 5 4 4 2 3 4 4 4 4 5 2 4 5 7 5 4 4 5 9 2 3 6 2 1 2
23 24 22 21 21 21 20 20 19 18 20 17 2 5 5 2 1 2 3 2 5 7 6 1 2 2 3 2 2 1 2 1 5 4 5 5 9 5 7 6 3 3 4 4 2 1 2
Wind_Direction
198 204 197 231 237 238 238 237 238 238 235 237 241 248 258 267 274 287 303 309 323 335 335 341 340 337 344 350 254 342 56 357 341 25 45 48 46 29 30 346 337 150 332 317 269 278 240
184 192 206 208 212 266 248 240 238 237 234 234 230 240 252 261 269 282 293 301 326 332 326 338 337 340 334 295 38 343 12 359 43 48 26 54 86 99 89 23 56 304 256 271 275 277 251
202 206 213 227 230 239 274 271 244 227 234 240 227 225 240 248 261 267 278 299 323 320 320 326 332 358 302 244 53 349 321 51 253 66 45 102 124 68 132 337 240 291 323 331 359 335 288
212 208 226 224 220 245 241 252 262 243 232 235 230 217 228 236 245 261 278 293 313 307 306 308 330 312 250 258 318 296 171 306 315 79 99 43 90 84 48 310 7 23 48 4 302 0 345
224 220 219 225 209 229 243 255 313 266 249 234 228 221 223 232 242 252 270 297 297 299 299 289 12 352 270 321 277 263 163 170 140 66 29 74 64 74 23 50 11 5 85 345 324 2 340
221 217 203 211 227 224 233 255 53 25 256 236 231 222 215 222 239 263 301 274 304 322 300 220 202 3 270 239 226 158 174 173 134 65 36 46 42 58 47 60 276 313 345 313 276 289 357
246 218 206 208 224 239 226 244 263 242 352 261 230 220 211 199 204 102 338 25 4 312 255 214 207 259 259 287 358 17 141 106 76 72 136 25 60 246 242 198 232 243 226 248 258 266 263
233 207 184 182 201 242 246 219 253 270 275 326 276 221 197 188 139 137 105 154 185 202 302 250 253 267 288 67 331 298 142 159 155 218 117 30 251 268 246 195 222 242 260 267 274 270 176
231 209 180 177 187 229 254 249 236 258 266 286 253 235 177 134 129 119 146 228 82 72 264 288 224 218 225 149 209 247 166 125 153 222 179 181 239 348 256 287 255 240 222 212 231 310 286
194 186 188 197 187 212 229 243 234 246 257 254 251 207 150 141 157 168 237 157 108 93 337 267 254 262 158 154 187 242 172 139 152 211 201 232 271 175 229 247 214 262 225 244 248 127 237
200 187 200 199 188 199 202 223 249 244 254 264 254 165 154 6 130 154 219 139 96 63 307 236 184 163 129 154 144 9 348 63 173 181 107 262 273 288 290 256 170 249 283 250 200 193 169
204 203 196 196 196 204 201 208 230 236 265 285 225 162 137 99 84 287 100 97 57 50 249 305 131 165 131 75 72 89 87 58 137 163 215 246 295 225 214 274 204 255 299 23 47 98 280
206 198 195 197 194 204 205 201 225 210 221 219 169 150 138 93 170 82 103 56 62 170 332 212 168 156 122 116 99 96 142 153 164 20 355 318 253 273 200 319 11 99 54 331 325 12 232
203 198 192 201 200 192 189 205 226 186 153 134 122 108 61 72 334 121 96 66 190 230 264 330 89 69 120 107 67 91 88 293 189 104 91 89 335 135 37 86 277 270 160 172 278 237 266
200 199 199 197 194 191 195 194 209 164 139 126 113 58 86 350 16 92 96 190 214 216 282 205 40 98 345 47 126 108 202 224 242 168 169 162 266 321 130 277 79 326 82 197 267 266 17
198 194 195 193 192 195 189 187 183 165 138 139 87 71 93 311 345 72 96 218 222 234 332 327 178 120 151 153 110 99 243 245 217 137 98 225 309 264 299 343 274 188 226 347 357 284 250
200 197 189 186 193 190 186 189 176 170 154 145 69 85 272 337 41 56 212 209 225 274 288 12 169 119 135 151 103 173 255 309 45 54 104 119 121 278 339 263 260 309 288 106 163 194 246
200 192 188 180 188 189 185 183 185 168 163 117 109 129 327 350 127 192 192 164 326 310 314 276 38 119 156 150 178 231 222 231 53 103 330 194 169 247 240 258 291 207 128 85 139 327 299
199 194 191 191 189 185 187 183 178 172 157 111 92 113 358 7 188 207 108 148 158 255 258 187 234 195 110 179 150 213 214 273 3 77 220 191 290 324 313 3 353 74 111 116 108 149 209
197 194 190 190 189 191 182 189 182 181 161 96 117 128 87 301 133 147 151 195 194 229 272 24 350 67 132 199 264 236 236 315 130 170 239 153 200 211 246 229 219 244 217 268 186 217 246
190 189 187 191 186 190 192 183 189 188 165 105 110 221 175 183 209 139 165 177 180 202 212 168 246 211 166 172 250 234 225 293 247 234 188 180 215 223 256 270 275 268 253 253 253 244 246
191 195 204 196 183 189 192 191 188 189 164 162 142 150 100 351 159 183 186 195 173 204 174 224 216 216 195 188 202 142 145 139 246 332 191 149 263 143 256 255 256 271 262 252 259 261 257
187 193 206 190 186 182 193 195 193 181 167 143 134 40 108 161 162 181 207 151 190 148 244 225 209 195 263 241 227 237 230 225 236 206 206 162 206 111 274 247 302 287 234 237 238 217 203
181 186 193 183 189 193 192 190 191 194 181 95 122 127 109 188 178 203 190 196 191 210 217 106 163 136 236 340 273 248 247 253 234 228 200 186 179 175 284 336 265 247 265 230 226 257 224
183 180 184 185 188 188 193 188 195 209 194 131 121 121 124 156 167 160 178 195 211 232 242 251 254 202 76 5 348 307 306 280 235 217 214 195 146 214 247 248 277 301 277 194 191 284 210
182 182 185 179 187 191 190 196 199 222 208 150 188 105 33 137 211 140 182 166 171 180 298 233 266 192 135 134 123 243 234 230 262 300 201 168 204 193 228 257 260 223 237 331 138 287 104
194 191 191 190 188 193 193 199 206 208 222 162 218 165 163 208 248 149 166 180 157 146 186 267 193 93 116 143 198 216 245 207 232 205 184 141 168 215 242 255 256 248 153 191 109 250 146
198 198 199 199 194 198 199 201 206 210 216 193 181 177 178 165 293 233 169 139 134 145 158 204 64 354 102 189 181 197 207 231 257 219 194 189 183 209 217 243 270 46 62 176 252 33 341
202 202 201 204 204 202 203 206 208 210 212 194 178 142 130 150 264 358 317 306 290 177 141 189 174 126 166 164 233 126 204 256 203 254 238 235 181 191 194 226 182 184 201 312 318 233 179